Regional Weather Roundup
Issued by NWS Newport/Morehead, NC

Current Version | Previous Version | Text Only | Print | Product List | Glossary On
Versions: 1 2 3 4 5 6 7 8 9 10 11 12 13 14 15 16 17 18 19 20 21 22 23 24 25 26 27 28 29 30 31 32 33 34 35 36 37 38 39 40 41 42 43 44 45 46 47 48 49 50
000 ASUS42 KMHX 281422 RWRMHX WEATHER ROUNDUP FOR EASTERN NORTH CAROLINA NATIONAL WEATHER SERVICE NEWPORT/MOREHEAD CITY NC 900 AM EST FRI NOV 28 2014 NOTE: "FAIR" INDICATES FEW OR NO CLOUDS BELOW 12,000 FEET WITH NO SIGNIFICANT WEATHER AND/OR OBSTRUCTIONS TO VISIBILITY NCZ015>017-031-032-045>047-102-103-281500- NORTH COAST CITY SKY/WX TMP DP RH WIND PRES REMARKS EDENTON N/A 37 29 71 N8 30.33S ELIZABETH CITY SUNNY 40 28 62 NW10 30.32R KITTY HAWK SUNNY 39 26 59 NW10G18 30.28R MANTEO SUNNY 39 28 63 NW10G18 30.30R $$ NCZ045>047-081-094-103-104-281500- CENTRAL COAST CITY SKY/WX TMP DP RH WIND PRES REMARKS FRISCO SUNNY 40 29 64 N10G22 30.28R SWANQUARTER N/A 39 N/A N/A VRB2G14 30.30R $$ NCZ095-097-098-100-101-281500- SOUTHERN COAST CITY SKY/WX TMP DP RH WIND PRES REMARKS BEAUFORT SUNNY 39 27 62 N17 30.32R CEDAR ISLAND N/A 41 N/A N/A N21G33 30.36S JACKSONVILLE SUNNY 37 25 61 N15 30.34R PINEY ISLAND SUNNY 42 27 55 N18 30.32R WILMINGTON SUNNY 38 25 59 N15G23 30.35R $$ NCZ011>013-027>030-043-044-078>080-089-090>093-098-281500- COASTAL PLAIN CITY SKY/WX TMP DP RH WIND PRES REMARKS AHOSKIE SUNNY 35 25 67 NW5 30.34S CLINTON SUNNY 37 26 65 NW6 30.37R ELIZABETHTOWN SUNNY 36 25 63 NW6 30.37R GOLDSBORO SUNNY 36 27 70 NW10 30.34R GREENVILLE SUNNY 36 27 69 N8 30.35R HAVELOCK SUNNY 39 25 57 N16G24 30.34R KENANSVILLE SUNNY 37 25 60 N8 30.37R KINSTON SUNNY 37 25 60 NW8 30.36R NEW BERN SUNNY 39 25 57 N15G22 30.35R RICHLANDS SUNNY 37 23 56 N6 30.35S ROCKY MOUNT SUNNY 36 24 62 NW10 30.35R WASHINGTON SUNNY 37 25 64 N8 30.34S WHITEVILLE SUNNY 37 25 61 N5 30.37R $$ AMZ130-135-150-152-154-156-158-170-250-252-270-ANZ085-086-088-633-658-670-281500- MARINE OBSERVATIONS STATION/POSITION TIME TEMP WIND PRES WAVE SWELL AIR SEA DIR/SP/G HT/PER HT/PER (UTC) (F) (DEG/KT/KT) (MB) (FT/S) (FT/S) CHESAPEAKE LIGHT 1400 39 340/ 24/ 27 1025.8 64 E VA BEACH 1400 44 64 340/ 23/ 29 1023.2 7/ 6 2/14 DUCK 1400 39 52 340/ 21/ 26 1024.5 2 E DUCK 1400 54 N/A 6/ 6 2/13 10 NE DUCK 1400 56 N/A 7/ 6 2/13 OREGON INLET 1400 40 52 310/ 17/ 21 1025.4 13E OREGON INLT 1400 60 N/A 8/ 7 2/13 HATTERAS CG 1400 41 53 340/ 24/ 27 1025.9 DIAMOND BUOY 1400 45 330/ 21/ 29 1024.2 6/ 6 2/13 17 S OCRACOKE NOT AVBL CAPE LOOKOUT 1400 38 350/ 14/ 17 1026.4 BEAUFORT LAB 1400 38 53 350/ 14/ 20 1025.8 30 SE NEW RIVER 1400 43 65 10/ 23/ 29 1026.0 6/ 5 2/13 5 SE WRIGHTSVLE 1400 40 58 360/ 19/ 23 1027.1 225 S CAPE HAT 1335 58 72 340/ 19/ 27 1022.3 10/ 9 41 SE CHARLESTON 1400 47 72 10/ 19/ 25 1026.6 7/ 6 2/ 9 $$

USA.gov is the U.S. government's official web portal to all federal, state and local government web resources and services.